STARLINK-34490

Last updated on Thu Jul 03 2025 00:02:07 GMT+0000 (Coordinated Universal Time)

1 64478U 25133G 25183.58335648 -.01080465 00000+0 -53594-2 0 9997 2 64478 53.1561 210.8222 0000918 58.4931 293.3165 15.83955617 2727
UTC large
Height (km)
Speed (km/s)
/
Latitude / Longitude
Inclination (degrees)
Orbital Period (minutes)
Azimuth
Elevation
Range (km)
Doppler Factor

Next 0 passes for location: London (51.5072 / 0.1276)

Sorry there are no passes over London.